New Braunfels, TX

3:15 PM CST on November 14, 2019 (GMT -0600)
New Braunfels Municipal

Weather History for KBAZ - October, 2019

Change the Weather History Date:

Sunday, October 20, 2019

  Actual Average (WUND) Record (WUND)
Temperature  
Mean Temperature 83 °F -  
Max Temperature 93 °F - - (-1)
Min Temperature 73 °F - - (-1)
Cooling Degree Days 18    
Growing Degree Days 33 (Base 50)    
Moisture  
Dew Point 68 °F    
Average Humidity 66    
Maximum Humidity 84    
Minimum Humidity 45    
Precipitation  
Precipitation 0.00 in - - ()
Sea Level Pressure  
Sea Level Pressure 29.74 in    
Wind  
Wind Speed 7 mph (SSE)    
Max Wind Speed 24 mph    
Max Gust Speed 29 mph    
Visibility 10 miles    
Events      
Averages and records for this station are not official NWS values.
T = Trace of Precipitation, MM = Missing Value Source: NWS Daily Summary

Daily Weather History Graph

Daily Weather History Graph

Search for Another Location

Airport or City:

Astronomy

Oct. 20, 2019 Rise Set
Actual Time 7:36 AM CDT 6:56 PM CDT
Civil Twilight 7:12 AM CDT 7:20 PM CDT
Nautical Twilight 6:44 AM CDT 7:48 PM CDT
Astronomical Twilight 6:17 AM CDT 8:16 PM CDT
Moon No Moon Rise 1:48 PM CDT (10/20)
Length of Visible Light 12h 07m
Length of Day
11h 19m
Waning Gibbous, 59% of the Moon is Illuminated
Oct 20
Waning Gibbous
Oct 21
Last Quarter
Oct 27
New
Nov 4
First Quarter
Nov 12
Full

Hourly Weather History & Observations

Time (CDT) Temp. Heat Index Dew Point Humidity Pressure Visibility Wind Dir Wind Speed Gust Speed Precip Events Conditions
12:51 AM 75.9 °F - 66.9 °F 74% 29.78 in 10.0 mi Calm Calm - N/A   Partly Cloudy
1:35 AM 77.0 °F - 66.0 °F 69% 29.80 in 10.0 mi ENE 6.9 mph - N/A   Overcast
1:51 AM 77.0 °F - 59.0 °F 54% 29.77 in 10.0 mi ENE 6.9 mph - N/A   Overcast
2:51 AM 75.9 °F - 53.1 °F 45% 29.76 in 10.0 mi Calm Calm - N/A   Overcast
3:51 AM 75.0 °F - 57.0 °F 53% 29.76 in 10.0 mi Calm Calm - N/A   Overcast
4:49 AM 73.4 °F - 57.2 °F 57% 29.78 in 10.0 mi NE 3.5 mph - N/A   Overcast
4:51 AM 73.9 °F - 57.0 °F 55% 29.75 in 10.0 mi NE 3.5 mph - N/A   Overcast
5:16 AM 73.0 °F - 57.9 °F 59% 29.78 in 10.0 mi NNE 3.5 mph - N/A   Mostly Cloudy
5:51 AM 73.9 °F - 60.1 °F 62% 29.76 in 10.0 mi Calm Calm - N/A   Overcast
6:51 AM 73.9 °F - 64.0 °F 71% 29.78 in 10.0 mi ENE 3.5 mph - N/A   Overcast
7:47 AM 75.2 °F - 66.2 °F 73% 29.81 in 10.0 mi Calm Calm - N/A   Overcast
7:51 AM 75.0 °F - 66.9 °F 76% 29.78 in 10.0 mi Calm Calm - N/A   Overcast
8:51 AM 77.0 °F - 72.0 °F 84% 29.78 in 10.0 mi South 6.9 mph - N/A   Overcast
9:51 AM 77.0 °F - 72.0 °F 84% 29.80 in 10.0 mi South 8.1 mph - N/A   Overcast
10:40 AM 80.1 °F 84.2 °F 73.0 °F 79% 29.82 in 6.0 mi South 8.1 mph - N/A   Haze
10:51 AM 81.0 °F 85.8 °F 73.0 °F 77% 29.80 in 6.0 mi South 9.2 mph - N/A   Haze
11:51 AM 81.0 °F 85.2 °F 72.0 °F 74% 29.79 in 10.0 mi SSE 9.2 mph - N/A   Overcast
12:51 PM 86.0 °F 92.2 °F 72.0 °F 63% 29.76 in 10.0 mi SW 6.9 mph - N/A   Mostly Cloudy
12:53 PM 87.1 °F 93.6 °F 72.0 °F 61% 29.78 in 10.0 mi South 11.5 mph 18.4 mph N/A   Mostly Cloudy
1:24 PM 89.1 °F 95.0 °F 71.1 °F 55% 29.76 in 10.0 mi South 13.8 mph 19.6 mph N/A   Mostly Cloudy
1:51 PM 89.1 °F 94.1 °F 70.0 °F 53% 29.72 in 10.0 mi South 9.2 mph 18.4 mph N/A   Mostly Cloudy
2:51 PM 91.9 °F 97.4 °F 70.0 °F 48% 29.68 in 10.0 mi South 15.0 mph - N/A   Scattered Clouds
3:51 PM 91.0 °F 95.6 °F 69.1 °F 48% 29.66 in 10.0 mi South 15.0 mph - N/A   Partly Cloudy
4:51 PM 93.0 °F 97.9 °F 69.1 °F 45% 29.65 in 10.0 mi South 12.7 mph - N/A   Scattered Clouds
5:51 PM 91.0 °F 95.2 °F 68.0 °F 47% 29.63 in 10.0 mi South 16.1 mph - N/A   Partly Cloudy
6:51 PM 87.1 °F 94.5 °F 73.0 °F 63% 29.64 in 10.0 mi SSE 24.2 mph 28.8 mph N/A   Mostly Cloudy
7:51 PM 84.0 °F 90.2 °F 73.0 °F 69% 29.66 in 10.0 mi SSE 18.4 mph - N/A   Clear
8:19 PM 82.9 °F 89.4 °F 73.9 °F 74% 29.69 in 10.0 mi SSE 21.9 mph - N/A   Mostly Cloudy
8:51 PM 82.0 °F 87.4 °F 73.0 °F 74% 29.68 in 10.0 mi SSE 15.0 mph 27.6 mph N/A   Scattered Clouds
9:02 PM 82.0 °F 87.4 °F 73.0 °F 74% 29.71 in 10.0 mi South 17.3 mph - N/A   Mostly Cloudy
9:31 PM 81.0 °F 85.8 °F 73.0 °F 77% 29.71 in 10.0 mi South 16.1 mph 24.2 mph N/A   Partly Cloudy
9:51 PM 80.1 °F 84.5 °F 73.9 °F 81% 29.69 in 10.0 mi South 17.3 mph - N/A   Partly Cloudy
10:09 PM 81.0 °F 86.2 °F 73.9 °F 79% 29.72 in 10.0 mi South 15.0 mph - N/A   Mostly Cloudy
10:51 PM 80.1 °F 84.5 °F 73.9 °F 81% 29.71 in 10.0 mi South 13.8 mph - N/A   Mostly Cloudy
11:51 PM 80.1 °F 84.5 °F 73.9 °F 81% 29.72 in 10.0 mi South 15.0 mph - N/A   Overcast